Weather History for KBLH - January, 2013

Change the Weather History Date:

Wednesday, January 9, 2013

  Actual Average Record
Temperature  
Mean Temperature 58 °F -  
Max Temperature 71 °F 65 °F 75 °F (1983)
Min Temperature 45 °F 41 °F 27 °F (1971)
Degree Days  
Heating Degree Days 7    
Growing Degree Days 8 (Base 50)    
Moisture  
Dew Point 30 °F    
Average Humidity 37    
Maximum Humidity 54    
Minimum Humidity 20    
Precipitation  
Precipitation 0.00 in - - ()
Sea Level Pressure  
Sea Level Pressure 30.06 in    
Wind  
Wind Speed 3 mph (NE)    
Max Wind Speed 10 mph    
Max Gust Speed -    
Visibility 10 miles    
Events      
Averages and records for this station are not official NWS values.
T = Trace of Precipitation, MM = Missing Value Source: NWS Daily Summary

Daily Weather History Graph

Daily Weather History Graph

Search for Another Location

Airport or City:

Trip Planner

Search our weather history database for the weather conditions in past years. The results will help you decide how hot, cold, wet, or windy it might be!

Date:

Astronomy

Jan. 09, 2013 Rise Set
Actual Time 6:44 AM PST 4:48 PM PST
Civil Twilight 6:16 AM PST 5:15 PM PST
Nautical Twilight 5:46 AM PST 5:46 PM PST
Astronomical Twilight 5:15 AM PST 6:16 PM PST
Moon 4:27 AM PST (1/9) 2:54 PM PST (1/9)
Length of Visible Light 10h 59m
Length of Day
10h 04m
Waning Crescent, 6% of the Moon is Illuminated
Jan 9
Waning Crescent
Jan 11
New
Jan 18
First Quarter
Jan 26
Full
Feb 3
Last Quarter

Hourly Weather History & Observations

Time (PST) Temp. Dew Point Humidity Pressure Visibility Wind Dir Wind Speed Gust Speed Precip Events Conditions
12:52 AM 54.0 °F 28.9 °F 38% 30.11 in 10.0 mi Calm Calm - N/A   Clear
1:52 AM 54.0 °F 28.9 °F 38% 30.11 in 10.0 mi North 3.5 mph - N/A   Clear
2:52 AM 57.9 °F 28.9 °F 33% 30.10 in 10.0 mi North 10.4 mph - N/A   Clear
3:52 AM 50.0 °F 28.9 °F 44% 30.11 in 10.0 mi Calm Calm - N/A   Clear
5:52 AM 51.1 °F 28.9 °F 43% 30.13 in 10.0 mi ESE 5.8 mph - N/A   Clear
6:52 AM 45.0 °F 28.9 °F 53% 30.16 in 10.0 mi Calm Calm - N/A   Clear
7:52 AM 50.0 °F 30.0 °F 46% 30.18 in 10.0 mi NE 4.6 mph - N/A   Clear
9:52 AM 62.1 °F 30.9 °F 31% 30.17 in 10.0 mi NNE 3.5 mph - N/A   Clear
10:52 AM 66.0 °F 28.9 °F 25% 30.14 in 10.0 mi NNE 5.8 mph - N/A   Clear
11:52 AM 66.9 °F 30.9 °F 26% 30.11 in 10.0 mi ENE 4.6 mph - N/A   Clear
12:52 PM 68.0 °F 28.9 °F 23% 30.07 in 10.0 mi NE 6.9 mph - N/A   Clear
1:52 PM 69.1 °F 28.9 °F 22% 30.05 in 10.0 mi ENE 3.5 mph - N/A   Clear
2:52 PM 71.1 °F 28.0 °F 20% 30.04 in 10.0 mi Calm Calm - N/A   Clear
3:52 PM 69.1 °F 30.9 °F 24% 30.02 in 10.0 mi ESE 4.6 mph - N/A   Clear
4:52 PM 64.0 °F 34.0 °F 33% 30.01 in 10.0 mi Calm Calm - N/A   Clear
5:52 PM 59.0 °F 32.0 °F 36% 29.99 in 10.0 mi East 6.9 mph - N/A   Clear
6:52 PM 55.9 °F 32.0 °F 40% 29.98 in 10.0 mi West 3.5 mph - N/A   Clear
7:52 PM 54.0 °F 32.0 °F 43% 29.97 in 10.0 mi Calm Calm - N/A   Clear
8:52 PM 53.1 °F 30.9 °F 43% 29.98 in 10.0 mi Calm Calm - N/A   Clear
9:52 PM 48.0 °F 30.9 °F 52% 29.96 in 10.0 mi NE 3.5 mph - N/A   Clear
10:52 PM 48.0 °F 32.0 °F 54% 29.94 in 10.0 mi East 4.6 mph - N/A   Clear
11:52 PM 46.9 °F 30.9 °F 54% 29.92 in 10.0 mi NNW 3.5 mph - N/A   Clear